TimeCDT,TemperatureF,Dew PointF,Humidity,Sea Level PressureIn,VisibilityMPH,Wind Direction,Wind SpeedMPH,Gust SpeedMPH,PrecipitationIn,Events,Conditions,WindDirDegrees,DateUTC
12:12 AM,71.6,69.8,94,29.88,10.0,East,10.4,-,N/A,,Scattered Clouds,80,2013-06-24 05:12:00
12:53 AM,72.0,68.0,87,29.84,10.0,East,9.2,-,N/A,,Clear,80,2013-06-24 05:53:00
1:53 AM,71.1,69.1,93,29.81,10.0,East,11.5,-,N/A,,Clear,90,2013-06-24 06:53:00
2:53 AM,70.0,69.1,97,29.80,7.0,East,5.8,-,N/A,,Partly Cloudy,90,2013-06-24 07:53:00
3:53 AM,71.1,69.1,93,29.81,10.0,SE,3.5,-,N/A,,Partly Cloudy,130,2013-06-24 08:53:00
4:53 AM,72.0,69.1,91,29.84,10.0,SW,8.1,-,N/A,,Mostly Cloudy,230,2013-06-24 09:53:00
5:21 AM,71.6,68.0,88,29.90,9.0,West,10.4,-,0.01,Rain-Thunderstorm,Light Rain,280,2013-06-24 10:21:00
5:43 AM,71.6,68.0,88,29.90,7.0,West,9.2,-,0.03,Rain,Light Rain,270,2013-06-24 10:43:00
5:53 AM,70.0,64.9,84,29.85,10.0,NW,5.8,-,0.04,Rain-Thunderstorm,Light Rain,310,2013-06-24 10:53:00
6:16 AM,69.8,64.4,83,29.86,10.0,WSW,4.6,-,0.00,Thunderstorm,Scattered Clouds,250,2013-06-24 11:16:00
6:51 AM,68.0,64.4,88,29.90,2.5,West,6.9,17.3,0.04,Rain,Heavy Rain,280,2013-06-24 11:51:00
6:53 AM,66.9,64.9,93,29.86,2.0,WSW,5.8,-,0.08,Rain,Heavy Rain,250,2013-06-24 11:53:00
7:07 AM,66.2,64.4,94,29.84,10.0,NNW,11.5,18.4,0.10,Rain,Light Rain,340,2013-06-24 12:07:00
7:24 AM,66.2,64.4,94,29.86,3.0,Variable,3.5,-,0.13,Rain-Thunderstorm,Heavy Thunderstorms and Rain,0,2013-06-24 12:24:00
7:53 AM,66.9,64.9,93,29.78,10.0,NNE,8.1,-,0.19,,Scattered Clouds,20,2013-06-24 12:53:00
8:53 AM,69.1,64.9,87,29.74,10.0,SSE,15.0,-,N/A,,Clear,150,2013-06-24 13:53:00
9:53 AM,71.1,68.0,90,29.75,10.0,SSE,16.1,28.8,N/A,,Clear,160,2013-06-24 14:53:00
10:53 AM,73.0,69.1,87,29.76,10.0,South,15.0,23.0,N/A,,Clear,170,2013-06-24 15:53:00
11:53 AM,77.0,69.1,76,29.78,10.0,SSE,18.4,25.3,N/A,,Clear,160,2013-06-24 16:53:00
12:53 PM,80.1,69.1,69,29.78,10.0,South,12.7,19.6,N/A,,Mostly Cloudy,180,2013-06-24 17:53:00
1:08 PM,80.6,68.0,65,29.81,10.0,South,12.7,24.2,N/A,,Scattered Clouds,190,2013-06-24 18:08:00
1:53 PM,82.0,68.0,62,29.75,10.0,South,16.1,23.0,N/A,,Scattered Clouds,190,2013-06-24 18:53:00
2:53 PM,84.9,69.1,59,29.73,10.0,South,15.0,21.9,N/A,,Partly Cloudy,190,2013-06-24 19:53:00
3:53 PM,87.1,69.1,55,29.72,10.0,SSE,11.5,-,N/A,,Clear,160,2013-06-24 20:53:00
4:53 PM,86.0,69.1,57,29.70,10.0,SSE,12.7,-,N/A,,Clear,160,2013-06-24 21:53:00
5:53 PM,86.0,69.1,57,29.69,10.0,SSE,15.0,19.6,N/A,,Clear,160,2013-06-24 22:53:00
6:53 PM,86.0,70.0,59,29.68,10.0,SE,10.4,-,N/A,,Clear,140,2013-06-24 23:53:00
7:53 PM,82.9,69.1,63,29.68,10.0,SE,11.5,-,N/A,,Clear,130,2013-06-25 00:53:00
8:53 PM,81.0,68.0,65,29.67,10.0,ESE,10.4,-,N/A,,Mostly Cloudy,120,2013-06-25 01:53:00
9:53 PM,79.0,68.0,69,29.66,10.0,SE,11.5,-,N/A,,Clear,130,2013-06-25 02:53:00
10:53 PM,78.1,68.0,71,29.64,10.0,SSE,13.8,-,N/A,,Clear,160,2013-06-25 03:53:00
11:53 PM,77.0,66.9,71,29.63,10.0,South,9.2,-,N/A,,Clear,170,2013-06-25 04:53:00